This is the latest recevied weather packets stored in our database for station/object ZL2ASC-13. If no packets are shown the sender has not sent any weather packets the latest 10 day(s).
| Time | Temp. | Humidity | Pressure | Rain* | Wind** | Luminosity | Snow |
|---|---|---|---|---|---|---|---|
| 1788487202 | 16.67° C | 56% | 1005.9 hPa | 0 mm | - | - | - |
| 1788487142 | 16.67° C | 55% | 1005.7 hPa | 0 mm | - | - | - |
| 1788487082 | 16.67° C | 55% | 1005.8 hPa | 0 mm | - | - | - |
| 1788487022 | 16.67° C | 55% | 1005.7 hPa | 0 mm | - | - | - |
| 1788486962 | 16.67° C | 54% | 1005.7 hPa | 0 mm | - | - | - |
| 1788486902 | 16.67° C | 54% | 1005.8 hPa | 0 mm | - | - | - |
| 1788486842 | 16.67° C | 55% | 1005.8 hPa | 0 mm | - | - | - |
| 1788486782 | 16.67° C | 56% | 1005.8 hPa | 0 mm | - | - | - |
| 1788486722 | 16.11° C | 57% | 1005.7 hPa | 0 mm | - | - | - |
| 1788486662 | 16.11° C | 55% | 1005.8 hPa | 0 mm | - | - | - |
| 1788486602 | 16.67° C | 54% | 1005.8 hPa | 0 mm | - | - | - |
| 1788486542 | 16.67° C | 54% | 1005.5 hPa | 0 mm | - | - | - |
| 1788486482 | 16.67° C | 58% | 1005.7 hPa | 0 mm | - | - | - |
| 1788486422 | 16.11° C | 55% | 1005.5 hPa | 0 mm | - | - | - |
| 1788486362 | 16.67° C | 56% | 1005.5 hPa | 0 mm | - | - | - |
| 1788486301 | 16.67° C | 55% | 1005.5 hPa | 0 mm | - | - | - |
| 1788486241 | 16.67° C | 56% | 1005.6 hPa | 0 mm | - | - | - |
| 1788486181 | 16.67° C | 55% | 1005.6 hPa | 0 mm | - | - | - |
| 1788486121 | 16.67° C | 55% | 1005.6 hPa | 0 mm | - | - | - |
| 1788486061 | 16.11° C | 55% | 1005.5 hPa | 0 mm | - | - | - |
| 1788486001 | 16.11° C | 55% | 1005.4 hPa | 0 mm | - | - | - |
| 1788485942 | 16.11° C | 56% | 1005.3 hPa | 0 mm | - | - | - |
| 1788485881 | 16.11° C | 56% | 1005.3 hPa | 0 mm | - | - | - |
| 1788485821 | 16.67° C | 54% | 1005.4 hPa | 0 mm | - | - | - |
| 1788485761 | 16.67° C | 55% | 1005.3 hPa | 0 mm | - | - | - |
* Rain latest hour (hover to see other rain measurements)
** Current wind speed in m/s (hover to see current wind gust speed)